Weather History for Fitchburg, MA

Change the Weather History Date:

Wednesday, July 24, 2013

  Actual Average (KORH) Record (KORH)
Temperature  
Mean Temperature 74 °F 71 °F  
Max Temperature 84 °F 79 °F 94 °F (1910)
Min Temperature 64 °F 62 °F 48 °F (1934)
Degree Days  
Heating Degree Days 0 0  
Month to date heating degree days 9  
Since 1 June heating degree days 92  
Since 1 July heating degree days 9  
Cooling Degree Days 9 6  
Month to date cooling degree days 135  
Year to date cooling degree days 241  
Since 1 June cooling degree days 219  
Growing Degree Days 24 (Base 50)    
Moisture  
Dew Point 64 °F    
Average Humidity 68    
Maximum Humidity 93    
Minimum Humidity 47    
Precipitation  
Precipitation 0.00 in 0.14 in 2.42 in (1988)
Month to date precipitation 3.23  
Year to date precipitation 26.65  
Snow  
Snow 0.00 in 0.00 in 0.00 in (2002)
Month to date snowfall 0.0  
Since 1 June snowfall 0.0  
Since 1 July snowfall 0.0  
Snow Depth -    
Sea Level Pressure  
Sea Level Pressure 29.73 in    
Wind  
Wind Speed 5 mph (NW)    
Max Wind Speed 13 mph    
Max Gust Speed 21 mph    
Visibility 10 miles    
Events Rain    
T = Trace of Precipitation, MM = Missing Value Source: NWS Daily Summary

Daily Weather History Graph

Daily Weather History Graph

Search for Another Location

Airport:

Trip Planner

Search our weather history database for the weather conditions in past years. The results will help you decide how hot, cold, wet, or windy it might be!

Date:

Astronomy

Jul. 24, 2013 Rise Set
Actual Time 5:31 AM EDT 8:15 PM EDT
Civil Twilight 4:58 AM EDT 8:47 PM EDT
Nautical Twilight 4:17 AM EDT 9:28 PM EDT
Astronomical Twilight 3:29 AM EDT 10:16 PM EDT
Moon 9:14 PM EDT (7/24) 7:52 AM EDT (7/24)
Length of Visible Light 15h 49m
Length of Day
14h 43m
Waning Gibbous, 95% of the Moon is Illuminated
Jul 24
Waning Gibbous
Jul 29
Last Quarter
Aug 6
New
Aug 14
First Quarter
Aug 20
Full

Hourly Weather History & Observations

Time (EDT) Temp. Heat Index Dew Point Humidity Pressure Visibility Wind Dir Wind Speed Gust Speed Precip Events Conditions
12:52 AM 72.0 °F - 69.1 °F 91% 29.61 in 10.0 mi Calm Calm - N/A   Partly Cloudy
1:52 AM 72.0 °F - 70.0 °F 93% 29.60 in 10.0 mi Calm Calm - N/A   Mostly Cloudy
2:52 AM 72.0 °F - 70.0 °F 93% 29.60 in 10.0 mi Calm Calm - N/A   Overcast
3:52 AM 73.9 °F - 70.0 °F 87% 29.60 in 10.0 mi North 3.5 mph - N/A   Overcast
4:52 AM 73.0 °F - 68.0 °F 84% 29.61 in 10.0 mi NW 5.8 mph - N/A   Overcast
5:52 AM 72.0 °F - 68.0 °F 87% 29.61 in 10.0 mi Calm Calm - N/A   Scattered Clouds
6:52 AM 73.0 °F - 69.1 °F 87% 29.63 in 10.0 mi Calm Calm - N/A   Overcast
7:30 AM 73.4 °F - 68.0 °F 83% 29.64 in 10.0 mi NW 3.5 mph - 0.00 in Rain Light Rain
7:52 AM 75.0 °F - 68.0 °F 79% 29.65 in 10.0 mi NNW 4.6 mph - 0.00 in   Mostly Cloudy
8:52 AM 78.1 °F - 66.9 °F 68% 29.65 in 10.0 mi NW 9.2 mph - N/A   Clear
9:52 AM 81.0 °F 83.3 °F 66.9 °F 62% 29.68 in 10.0 mi WNW 5.8 mph - N/A   Overcast
10:52 AM 82.0 °F 84.1 °F 66.0 °F 58% 29.69 in 10.0 mi West 12.7 mph 18.4 mph N/A   Scattered Clouds
11:52 AM 82.0 °F 83.4 °F 64.0 °F 54% 29.71 in 10.0 mi WSW 10.4 mph 16.1 mph N/A   Scattered Clouds
12:52 PM 82.9 °F 84.0 °F 63.0 °F 51% 29.72 in 10.0 mi West 9.2 mph 17.3 mph N/A   Clear
1:52 PM 82.0 °F 83.1 °F 63.0 °F 52% 29.73 in 10.0 mi NW 8.1 mph - N/A   Mostly Cloudy
2:52 PM 82.9 °F 83.3 °F 61.0 °F 47% 29.74 in 10.0 mi WNW 12.7 mph 20.7 mph N/A   Partly Cloudy
3:52 PM 82.9 °F 83.3 °F 61.0 °F 47% 29.76 in 10.0 mi NW 11.5 mph 17.3 mph N/A   Partly Cloudy
4:52 PM 80.1 °F 80.9 °F 60.1 °F 50% 29.77 in 10.0 mi NW 8.1 mph - N/A   Partly Cloudy
5:52 PM 79.0 °F - 61.0 °F 54% 29.78 in 10.0 mi NW 6.9 mph - N/A   Clear
6:52 PM 81.0 °F 81.6 °F 60.1 °F 49% 29.81 in 10.0 mi NW 3.5 mph - N/A   Mostly Cloudy
7:52 PM 75.9 °F - 61.0 °F 60% 29.84 in 10.0 mi North 9.2 mph - N/A   Overcast
8:52 PM 71.1 °F - 59.0 °F 66% 29.90 in 10.0 mi North 8.1 mph - N/A   Partly Cloudy
9:52 PM 69.1 °F - 55.0 °F 61% 29.93 in 10.0 mi North 10.4 mph 19.6 mph N/A   Overcast
10:52 PM 66.9 °F - 54.0 °F 63% 29.97 in 10.0 mi NNE 10.4 mph - N/A   Overcast
11:52 PM 64.0 °F - 51.1 °F 63% 29.99 in 10.0 mi North 12.7 mph 19.6 mph N/A   Overcast